Skip Page Navigation
NASA JPL Caltech
NASA Logo - Jet Propulsion Laboratory + View the NASA Portal
+ Center for Near-Earth Object Studies
JPL Home Earth Solar System Stars & Galaxies Technology
JPL Solar System Dynamics
BODIES ORBITS EPHEMERIDES TOOLS PHYSICAL DATA DISCOVERY FAQ SITE MAP
IMPORTANT: The SSD Announcement email list is now available. Major changes are coming in the near future, including possible hostname and/or URL changes. To be notified of such changes, subscribe to this email list.

Please visit this page for more details.


JPL Small-Body Database Browser
Search: [ help ]  
48178 (2001 HU31)
Classification: Main-belt Asteroid          SPK-ID: 2048178
Ephemeris | Orbit Diagram | Orbital Elements | Mission Design | Physical Parameters | Discovery Circumstances | Close-Approach Data ]

[ show orbit diagram ]
Orbital Elements at Epoch 2458600.5 (2019-Apr-27.0) TDB
Reference: JPL 24 (heliocentric ecliptic J2000)
 Element Value Uncertainty (1-sigma)   Units 
e .03246028107525475 4.5016e-08  
a 2.694493505766894 1.6826e-08 au
q 2.607029489214252 1.2118e-07 au
i 21.3118630222948 5.2552e-06 deg
node 229.4101536918529 1.1219e-05 deg
peri 230.1751949548051 7.1272e-05 deg
M 160.6944970581249 7.0772e-05 deg
tp 2457879.371528560431
(2017-May-05.87152856)
0.00031678 TDB
period 1615.526694883288
4.42
1.5133e-05
4.143e-08
d
yr
n .2228375434093386 2.0873e-09 deg/d
Q 2.781957522319536 1.7373e-08 au
  Orbit Determination Parameters
   # obs. used (total)      942  
   data-arc span      7598 days (20.80 yr)  
   first obs. used      1998-10-29  
   last obs. used      2019-08-18  
   planetary ephem.      DE431  
   SB-pert. ephem.      SB431-N16  
   condition code      0  
   norm. resid. RMS      .48511  
   source      ORB  
   producer      Otto Matic  
   solution date      2019-Sep-24 02:14:43  

Additional Information
 Earth MOID = 1.64177 au 
 Jupiter MOID = 2.35057 au 
 T_jup = 3.271 
[ show covariance matrix ]

Ephemeris | Orbit Diagram | Orbital Elements | Mission Design | Physical Parameters | Discovery Circumstances | Close-Approach Data ]

Physical Parameter Table
Parameter Symbol Value Units Sigma Reference Notes
absolute magnitude H 14.1   n/a MPO436119  
diameter diameter 4.256 km 0.333 urn:nasa:pds:neowise_diameters_albedos::2.0[mainbelt] (http://adsabs.harvard.edu/abs/2011ApJ...741...68M)  
geometric albedo albedo 0.245   0.046 urn:nasa:pds:neowise_diameters_albedos::2.0[mainbelt] (http://adsabs.harvard.edu/abs/2011ApJ...741...68M)  

48178 (2001 HU31)          Discovered 2001-Apr-28 by Yeung, W. K. Y. at Desert Beaver
Reference: 20020921/Numbers.arcLast Updated: 2004-04-19

[ hide close-approach data ]
Close-Approach Data   ...sorted by Date/Time (TDB)
Date/Time (TDB) Time Uncertainty
(days_HH:MM)
Body Nominal Distance (au) Minimum Distance (au) Maximum Distance (au) V-relative (km/s) V-infinity (km/s) JD (TDB) Time Uncertainty (minutes) Semi-major axis (km) Semi-minor axis (km) range-LOV angle (deg) N-sigma BP Orbit Ref. Reference Modified
1934-Oct-17 09:07 < 00:01 Thisb 0.0286151028431681 0.0285990814882292 0.0286311256107163 6.55447192089123 6.55447188453811 2427727.880173218 0.972679611430673 859.540573663274 42.4995236839714 -21.6990661613354 37517.1615989553 T 24 CATAB v2.0f-lin.ifort 2019-Sep-24 02:14:48 2019-Sep-24 02:14
2056-May-20 10:25 < 00:01 Thisb 0.0158935655571588 0.0158822927647987 0.0159048385610977 6.73475089898623 6.73475083528733 2472138.934270743 0.722253107489183 569.450223246275 42.0262601144131 9.28942010890856 10014.5680914064 T 24 CATAB v2.0f-lin.ifort 2019-Sep-24 02:14:48 2019-Sep-24 02:14
2151-Apr-25 10:48 00:02 Thisb 0.0376764152386424 0.03765554509078 0.0376972999214909 6.7083332110829 6.70833318410609 2506810.950226128 2.25146635165457 1564.28093878412 42.85781706452 -48.310657448692 98215.3905817363 T 24 CATAB v2.0f-lin.ifort 2019-Sep-24 02:14:48 2019-Sep-24 02:14

Alternate Designations
 2001 HU31 = 1999 AZ29 
Ephemeris | Orbit Diagram | Orbital Elements | Mission Design | Physical Parameters | Discovery Circumstances | Close-Approach Data ]
ABOUT SSD CREDITS/AWARDS PRIVACY/COPYRIGHT GLOSSARY LINKS
FirstGov 2019-Dec-06 23:27 UT
(server date/time)  
NASA Home Page
Site Manager:   Ryan S. Park
Webmaster  Alan B. Chamberlin